Location: Sungai Bunut
(2.6333°N, 113.7333°E)
Time: 19:19:17
(UTC+00:00)

Transit 4A - Pass Details

Date: 03 December 2023
Orbit: 870 x 973 km, 66.8° (Epoch: 04 March)

Event Time Altitude Azimuth Distance (km) Brightness Sun altitude
Rises 21:49:28 0° 16° (NNE) 3,493 10.8 -6.9°
Reaches altitude 10° 21:53:44 10° 45° (NE) 2,535 10.5 -5.9°
Maximum altitude 21:55:59 12° 68° (ENE) 2,368 10.8 -5.4°
Drops below altitude 10° 21:58:14 10° 91° (E) 2,522 11.6 -4.9°
Sets 22:02:25 0° 120° (ESE) 3,452 13.4 -3.9°
